period_start,C,m1,H,J0,J1,J2,J3,J4,J5,JA,JB,JC,JD,JJ,JK,JN,#
2016-12-20 00:04:22,0.19,9.09,0.00,19.06,23.80,27.56,15.01,54.10,1027.76,2038.99,1416.06,1552.13,1724.63,599.79,610.46,40.86,0000 0000 0000 0000 000000
2016-12-20 00:09:23,0.18,9.10,0.00,19.07,23.80,27.54,15.06,54.01,1027.73,2038.99,1414.99,1551.20,1723.60,600.02,610.77,40.91,0000 0000 0000 0000 000000
2016-12-20 00:14:24,0.18,9.11,0.00,19.05,23.80,27.57,14.97,54.18,1027.70,2038.98,1413.97,1550.30,1722.59,599.87,610.57,40.96,0000 0000 0000 0000 000000
2016-12-20 00:19:26,0.16,9.11,0.00,19.08,23.79,27.57,15.07,54.31,1027.56,2038.98,1412.98,1549.52,1721.69,600.02,610.52,41.01,0000 0000 0000 0000 000000
2016-12-20 00:24:27,0.17,9.12,0.00,19.11,23.79,27.59,15.02,54.22,1027.71,2038.99,1411.98,1548.65,1720.69,600.00,610.58,41.06,0000 0000 0000 0000 000000
2016-12-20 00:29:28,0.18,9.13,0.00,19.12,23.79,27.59,15.03,54.17,1027.77,2038.99,1410.86,1547.77,1719.70,600.02,610.50,41.11,0000 0000 0000 0000 000000
2016-12-20 00:34:30,0.16,9.14,0.00,19.11,23.79,27.56,15.03,54.28,1027.77,2038.99,1409.83,1546.89,1718.68,599.97,610.58,41.16,0000 0000 0000 0000 000000
2016-12-20 00:39:31,0.18,9.15,0.00,19.12,23.79,27.52,15.09,54.31,1027.71,2038.99,1408.77,1545.94,1717.70,599.71,610.25,41.21,0000 0000 0000 0000 000000
2016-12-20 00:44:32,0.19,9.16,0.00,19.15,23.79,27.49,15.00,54.22,1027.71,2038.98,1407.72,1545.04,1716.58,599.95,610.47,41.26,0000 0000 0000 0000 000000
2016-12-20 00:49:33,0.17,9.17,0.00,19.14,23.80,27.59,15.08,54.41,1027.65,2038.99,1406.77,1544.15,1715.64,599.89,610.37,41.31,0000 0000 0000 0000 000000
2016-12-20 00:54:34,0.17,9.18,0.00,19.11,23.80,27.58,15.07,54.32,1027.77,2038.99,1405.82,1543.32,1714.68,600.20,610.79,41.36,0000 0000 0000 0000 000000
2016-12-20 00:59:36,0.18,9.19,0.00,19.11,23.80,27.60,15.03,54.27,1027.84,2038.99,1404.74,1542.50,1713.73,599.90,610.52,41.41,0000 0000 0000 0000 000000
2016-12-20 01:04:37,0.18,9.20,0.00,19.09,23.80,27.61,15.13,54.21,1027.85,2038.99,1403.69,1541.60,1712.73,600.00,610.69,41.46,0000 0000 0000 0000 000000
2016-12-20 01:09:38,0.15,9.21,0.00,19.07,23.79,27.65,15.07,53.98,1027.85,2038.99,1402.59,1540.78,1711.82,600.14,610.82,41.51,0000 0000 0000 0000 000000
2016-12-20 01:14:39,0.16,9.21,0.00,19.05,23.79,27.62,15.13,53.95,1027.85,2038.99,1401.56,1539.95,1710.88,600.06,610.67,41.56,0000 0000 0000 0000 000000
2016-12-20 01:19:41,0.16,9.22,0.00,19.08,23.78,27.58,15.03,53.88,1027.85,2038.98,1400.61,1539.09,1710.00,599.87,610.58,41.61,0000 0000 0000 0000 000000
2016-12-20 01:24:42,0.17,9.23,0.00,19.11,23.78,27.53,15.05,53.88,1027.84,2038.97,1399.63,1538.27,1709.08,599.84,610.39,41.67,0000 0000 0000 0000 000000
2016-12-20 01:29:43,0.17,9.24,0.00,19.11,23.78,27.56,15.05,54.01,1027.85,2038.98,1398.70,1537.58,1708.20,599.79,610.43,41.72,0000 0000 0000 0000 000000
2016-12-20 01:34:44,0.12,9.25,0.00,19.11,23.78,27.54,15.04,54.07,1027.85,2038.99,1397.83,1536.84,1707.36,600.06,610.80,41.77,0000 0000 0000 0000 000000
2016-12-20 01:39:46,0.16,9.26,0.00,19.11,23.79,27.57,15.03,54.00,1027.85,2038.98,1396.86,1536.04,1706.44,599.98,610.53,41.82,0000 0000 0000 0000 000000
2016-12-20 01:44:47,0.16,9.26,0.00,19.11,23.79,27.64,15.08,54.08,1027.85,2038.98,1395.96,1535.26,1705.59,600.05,610.60,41.87,0000 0000 0000 0000 000000
2016-12-20 01:49:48,0.12,9.27,0.00,19.16,23.80,27.59,15.09,54.04,1027.85,2038.99,1395.01,1534.78,1704.81,599.96,610.54,41.92,0000 0000 0000 0000 000000
2016-12-20 01:54:50,0.15,9.28,0.00,19.15,23.80,27.62,14.99,54.08,1027.85,2038.99,1394.07,1533.98,1703.93,599.93,610.49,41.97,0000 0000 0000 0000 000000
2016-12-20 01:59:51,0.17,9.29,0.00,19.15,23.80,27.61,14.97,54.11,1027.85,2038.99,1393.19,1533.11,1703.01,599.93,610.44,42.02,0000 0000 0000 0000 000000
2016-12-20 02:04:53,0.17,9.30,0.00,19.19,23.81,27.58,15.03,54.20,1027.85,2038.98,1392.26,1532.32,1702.09,600.07,610.67,42.07,0000 0000 0000 0000 000000
2016-12-20 02:09:54,0.13,9.30,0.00,19.21,23.82,27.64,14.99,54.34,1027.84,2038.97,1391.68,1531.65,1701.21,599.75,610.27,42.12,0000 0000 0000 0000 000000
2016-12-20 02:14:55,0.14,9.31,0.00,19.24,23.82,27.71,15.07,54.14,1027.85,2038.97,1390.79,1530.88,1700.28,600.08,610.52,42.17,0000 0000 0000 0000 000000
2016-12-20 02:19:57,0.21,9.32,0.00,19.23,23.82,27.70,15.01,53.93,1027.83,2038.95,1389.49,1529.98,1699.32,599.88,610.24,42.22,0000 0000 0000 0000 000000
2016-12-20 02:24:58,0.18,9.33,0.00,19.24,23.84,27.68,15.06,53.88,1027.84,2038.94,1388.46,1529.10,1698.43,599.92,610.27,42.27,0000 0000 0000 0000 000000
2016-12-20 02:29:59,0.17,9.34,0.00,19.24,23.84,27.65,15.01,54.00,1027.85,2038.93,1387.48,1528.28,1697.49,599.77,610.04,42.32,0000 0000 0000 0000 000000
2016-12-20 02:35:01,0.17,9.35,0.00,19.25,23.85,27.73,14.97,54.05,1027.85,2038.89,1386.49,1527.59,1696.59,599.78,610.26,42.37,0000 0000 0000 0000 000000
2016-12-20 02:40:02,0.08,9.35,0.00,19.24,23.85,27.67,15.01,53.98,1027.87,2038.80,1385.84,1526.82,1695.80,599.83,610.18,42.42,0000 0000 0000 0000 000000
2016-12-20 02:45:03,0.08,9.36,0.00,19.23,23.87,27.72,15.06,53.98,1027.93,2038.31,1384.99,1526.02,1694.89,600.09,610.64,42.47,0000 0000 0000 0000 000000
2016-12-20 02:50:04,0.16,9.37,0.00,19.26,23.87,27.67,15.10,54.02,1027.90,2038.24,1384.03,1525.18,1693.96,600.30,610.58,42.53,0000 0000 0000 0000 000000
2016-12-20 02:55:06,0.18,9.38,0.00,19.25,23.88,27.73,15.01,53.84,1027.86,2038.19,1382.94,1524.36,1693.04,599.76,610.13,42.58,0000 0000 0000 0000 000000
2016-12-20 03:00:07,0.16,9.38,0.00,19.30,23.89,27.72,15.04,53.87,1027.87,2038.24,1382.00,1523.69,1692.14,599.96,610.21,42.63,0000 0000 0000 0000 000000
2016-12-20 03:05:09,0.13,9.39,0.00,19.33,23.90,27.72,15.02,53.96,1027.85,2038.21,1381.15,1522.96,1691.34,599.95,610.25,42.68,0000 0000 0000 0000 000000
2016-12-20 03:10:10,0.16,9.40,0.00,19.30,23.91,27.73,15.00,53.99,1027.85,2038.16,1380.14,1522.12,1690.55,599.88,610.09,42.73,0000 0000 0000 0000 000000
2016-12-20 03:15:11,0.17,9.41,0.00,19.33,23.92,27.73,15.00,53.94,1027.84,2038.09,1379.23,1521.40,1689.71,599.88,609.91,42.78,0000 0000 0000 0000 000000
2016-12-20 03:20:12,0.10,9.41,0.00,19.34,23.92,27.79,15.00,54.06,1027.85,2038.02,1378.53,1520.78,1688.88,599.83,609.93,42.83,0000 0000 0000 0000 000000
2016-12-20 03:25:14,0.14,9.42,0.00,19.36,23.95,27.77,15.02,53.92,1027.86,2038.01,1377.69,1520.00,1688.01,599.96,610.07,42.88,0000 0000 0000 0000 000000
2016-12-20 03:30:15,0.18,9.43,0.00,19.38,23.95,27.79,14.98,53.73,1027.89,2038.01,1376.74,1519.17,1687.11,599.96,610.05,42.93,0000 0000 0000 0000 000000
2016-12-20 03:35:16,0.15,9.44,0.00,19.37,23.97,27.80,15.03,53.75,1028.05,2038.01,1375.87,1518.43,1686.23,600.01,610.21,42.98,0000 0000 0000 0000 000000
2016-12-20 03:40:17,0.13,9.45,0.00,19.37,23.97,27.80,15.07,53.87,1027.88,2038.01,1375.00,1517.76,1685.41,600.03,610.14,43.03,0000 0000 0000 0000 000000
2016-12-20 03:45:18,0.15,9.45,0.00,19.41,23.99,27.83,15.07,53.74,1027.86,2038.00,1374.11,1517.01,1684.67,600.09,610.03,43.08,0000 0000 0000 0000 000000
2016-12-20 03:50:20,0.16,9.46,0.00,19.40,24.00,27.84,15.02,53.77,1027.96,2038.00,1373.31,1516.20,1683.88,599.82,609.97,43.13,0000 0000 0000 0000 000000
2016-12-20 03:55:21,0.17,9.47,0.00,19.40,24.01,27.85,15.05,53.77,1028.27,2037.99,1372.40,1515.52,1682.99,600.13,610.46,43.18,0000 0000 0000 0000 000000
2016-12-20 04:00:22,0.13,9.48,0.00,19.43,24.02,27.91,15.05,53.84,1028.17,2037.99,1371.51,1514.85,1682.10,600.13,610.22,43.23,0000 0000 0000 0000 000000
2016-12-20 04:05:24,0.16,9.48,0.00,19.44,24.03,27.90,15.05,53.81,1028.21,2037.99,1370.68,1514.05,1681.28,600.07,610.20,43.28,0000 0000 0000 0000 000000
2016-12-20 04:10:25,0.15,9.49,0.00,19.42,24.05,27.93,15.01,54.01,1028.21,2037.99,1369.85,1513.27,1680.49,600.01,610.18,43.33,0000 0000 0000 0000 000000
2016-12-20 04:15:26,0.15,9.50,0.00,19.46,24.05,27.92,15.03,54.01,1028.28,2037.98,1368.97,1512.60,1679.64,600.12,610.31,43.38,0000 0000 0000 0000 000000
2016-12-20 04:20:27,0.11,9.51,0.00,19.48,24.07,27.91,14.99,54.16,1028.33,2037.96,1368.08,1511.91,1678.83,599.95,610.11,43.44,0000 0000 0000 0000 000000
2016-12-20 04:25:29,0.16,9.52,0.00,19.50,24.07,27.91,14.99,54.04,1028.33,2037.94,1367.29,1511.08,1677.98,599.99,610.08,43.49,0000 0000 0000 0000 000000
2016-12-20 04:30:30,0.17,9.52,0.00,19.51,24.09,27.92,15.01,54.33,1028.33,2037.90,1366.34,1510.27,1677.08,599.80,609.80,43.54,0000 0000 0000 0000 000000
2016-12-20 04:35:31,0.17,9.53,0.00,19.53,24.10,27.96,15.01,54.13,1028.33,2037.90,1365.56,1509.65,1676.24,599.97,610.01,43.59,0000 0000 0000 0000 000000
2016-12-20 04:40:32,0.04,9.54,0.00,19.52,24.10,27.96,14.98,54.31,1028.33,2037.53,1364.80,1508.94,1675.38,599.68,609.69,43.64,0000 0000 0000 0000 000000
2016-12-20 04:45:33,0.14,9.54,0.00,19.50,24.11,27.97,15.04,54.15,1028.36,2037.31,1363.90,1508.08,1674.52,599.99,610.08,43.69,0000 0000 0000 0000 000000
2016-12-20 04:50:35,0.16,9.55,0.00,19.52,24.12,27.98,15.02,54.16,1028.38,2037.13,1362.98,1507.26,1673.60,599.73,609.83,43.74,0000 0000 0000 0000 000000
2016-12-20 04:55:36,0.17,9.56,0.00,19.52,24.12,28.01,15.00,54.18,1028.34,2037.10,1361.94,1506.46,1672.73,600.01,610.03,43.79,0000 0000 0000 0000 000000
2016-12-20 05:00:37,0.14,9.57,0.00,19.52,24.12,28.02,14.97,54.13,1028.12,2037.06,1360.92,1505.74,1671.83,599.88,609.83,43.84,0000 0000 0000 0000 000000
2016-12-20 05:05:38,0.14,9.58,0.00,19.51,24.14,28.03,15.08,54.02,1028.19,2037.03,1359.96,1504.95,1670.99,600.24,610.14,43.89,0000 0000 0000 0000 000000
2016-12-20 05:10:40,0.18,9.59,0.00,19.51,24.15,28.03,15.04,53.92,1028.32,2037.05,1359.07,1504.10,1670.11,599.99,610.12,43.94,0000 0000 0000 0000 000000
2016-12-20 05:15:41,0.17,9.59,0.00,19.52,24.15,28.04,15.07,54.20,1028.22,2037.01,1358.20,1503.53,1669.26,600.08,610.15,43.99,0000 0000 0000 0000 000000
2016-12-20 05:20:42,0.16,9.60,0.00,19.55,24.15,28.04,15.00,54.38,1028.17,2037.02,1357.38,1502.72,1668.49,599.95,609.81,44.04,0000 0000 0000 0000 000000
2016-12-20 05:25:43,0.14,9.61,0.00,19.56,24.16,28.02,14.98,54.33,1028.31,2037.00,1356.48,1501.97,1667.62,599.89,609.77,44.09,0000 0000 0000 0000 000000
2016-12-20 05:30:45,0.17,9.62,0.00,19.54,24.17,28.00,15.01,54.20,1028.33,2037.00,1355.58,1501.12,1666.72,600.20,610.26,44.14,0000 0000 0000 0000 000000
2016-12-20 05:35:46,0.16,9.62,0.00,19.53,24.17,27.99,14.98,54.13,1028.33,2037.00,1354.66,1500.39,1665.91,599.77,609.82,44.19,0000 0000 0000 0000 000000
2016-12-20 05:40:47,0.14,9.63,0.00,19.54,24.17,28.02,15.03,54.17,1028.32,2037.00,1353.68,1499.76,1665.05,600.06,610.16,44.24,0000 0000 0000 0000 000000
2016-12-20 05:45:49,0.14,9.64,0.00,19.52,24.17,28.06,15.06,54.21,1028.36,2037.00,1352.88,1498.98,1664.17,600.13,610.06,44.29,0000 0000 0000 0000 000000
2016-12-20 05:50:50,0.18,9.65,0.00,19.52,24.19,28.01,15.03,54.03,1028.54,2037.00,1351.99,1498.11,1663.33,599.83,610.13,44.35,0000 0000 0000 0000 000000
2016-12-20 05:55:51,0.17,9.66,0.00,19.53,24.19,28.06,14.99,54.10,1028.40,2037.00,1351.08,1497.46,1662.61,600.18,610.23,44.40,0000 0000 0000 0000 000000
2016-12-20 06:00:53,0.13,9.67,0.00,19.54,24.20,27.98,15.01,53.88,1028.37,2037.00,1350.12,1496.82,1661.85,599.93,610.01,44.45,0000 0000 0000 0000 000000
2016-12-20 06:05:54,0.16,9.68,0.00,19.56,24.20,28.00,15.01,53.83,1028.40,2037.00,1349.13,1496.04,1661.04,600.09,610.04,44.50,0000 0000 0000 0000 000000
2016-12-20 06:10:55,0.18,9.68,0.00,19.54,24.20,28.05,14.97,53.70,1028.39,2036.99,1348.39,1495.35,1660.19,599.91,609.89,44.55,0000 0000 0000 0000 000000
2016-12-20 06:15:57,0.14,9.69,0.00,19.52,24.20,28.00,15.00,53.67,1028.38,2036.99,1347.49,1494.71,1659.52,599.76,609.88,44.60,0000 0000 0000 0000 000000
2016-12-20 06:20:58,0.10,9.70,0.00,19.52,24.20,28.00,14.93,53.58,1028.71,2036.99,1346.80,1494.01,1658.79,599.88,610.16,44.65,0000 0000 0000 0000 000000
2016-12-20 06:25:59,0.15,9.71,0.00,19.54,24.20,27.99,15.02,53.79,1028.44,2036.99,1345.99,1493.25,1658.01,599.89,609.99,44.70,0000 0000 0000 0000 000000
2016-12-20 06:31:01,0.14,9.71,0.00,19.55,24.22,28.06,15.09,53.92,1028.76,2036.99,1345.12,1492.79,1657.17,600.10,610.45,44.75,0000 0000 0000 0000 000000
2016-12-20 06:36:02,0.15,9.72,0.00,19.55,24.22,28.05,15.11,53.92,1028.71,2036.99,1344.40,1492.04,1656.55,599.91,610.24,44.80,0000 0000 0000 0000 000000
2016-12-20 06:41:03,0.12,9.72,0.00,19.54,24.22,28.09,15.08,53.93,1028.79,2036.99,1343.75,1491.41,1655.83,599.93,610.14,44.85,0000 0000 0000 0000 000000
2016-12-20 06:46:04,0.11,9.73,0.00,19.54,24.22,28.03,15.06,53.92,1028.82,2036.99,1343.01,1490.82,1655.03,600.20,610.60,44.90,0000 0000 0000 0000 000000
2016-12-20 06:51:05,0.16,9.74,0.00,19.56,24.24,28.07,15.09,54.27,1028.85,2036.99,1342.29,1490.05,1654.19,599.97,610.25,44.95,0000 0000 0000 0000 000000
2016-12-20 06:56:07,0.17,9.75,0.00,19.56,24.25,28.09,14.98,54.23,1028.89,2036.98,1341.54,1489.38,1653.46,599.81,610.12,45.00,0000 0000 0000 0000 000000
2016-12-20 07:01:08,0.14,9.75,0.00,19.57,24.25,28.08,15.04,53.95,1029.10,2036.98,1340.63,1488.75,1652.68,599.97,610.41,45.05,0000 0000 0000 0000 000000
2016-12-20 07:06:09,0.12,9.76,0.00,19.59,24.25,28.05,14.96,53.90,1029.07,2036.97,1339.78,1488.02,1651.89,599.81,610.21,45.10,0000 0000 0000 0000 000000
2016-12-20 07:11:11,0.15,9.77,0.00,19.60,24.25,28.07,14.98,53.97,1028.87,2036.96,1338.95,1487.24,1651.04,599.71,610.00,45.16,0000 0000 0000 0000 000000
2016-12-20 07:16:12,0.16,9.78,0.00,19.59,24.25,28.14,14.96,53.96,1028.88,2036.97,1338.07,1486.69,1650.30,599.49,609.77,45.21,0000 0000 0000 0000 000000
2016-12-20 07:21:13,0.14,9.79,0.00,19.61,24.25,28.11,14.99,53.96,1028.86,2036.96,1337.25,1486.00,1649.56,599.83,610.07,45.26,0000 0000 0000 0000 000000
2016-12-20 07:26:15,0.16,9.79,0.00,19.58,24.26,28.13,15.00,53.99,1028.84,2036.95,1336.47,1485.22,1648.83,600.07,610.40,45.31,0000 0000 0000 0000 000000
2016-12-20 07:31:16,0.14,9.80,0.00,19.59,24.26,28.14,14.99,53.86,1028.82,2036.93,1335.63,1484.63,1648.04,600.05,610.26,45.36,0000 0000 0000 0000 000000
2016-12-20 07:36:17,0.08,9.81,0.00,19.61,24.27,28.11,15.03,53.95,1028.83,2036.84,1334.96,1484.01,1647.26,600.18,610.35,45.41,0000 0000 0000 0000 000000
2016-12-20 07:41:19,0.18,9.81,0.00,19.60,24.27,28.07,14.99,53.98,1028.83,2036.83,1334.12,1483.30,1646.54,599.77,610.02,45.46,0000 0000 0000 0000 000000
2016-12-20 07:46:20,0.12,9.82,0.00,19.62,24.27,28.05,15.05,53.84,1028.83,2036.69,1333.13,1482.73,1645.79,600.02,610.27,45.51,0000 0000 0000 0000 000000
2016-12-20 07:51:21,0.16,9.83,0.00,19.62,24.27,28.09,15.03,53.94,1028.82,2036.82,1332.27,1482.02,1645.04,599.90,610.05,45.56,0000 0000 0000 0000 000000
2016-12-20 07:56:22,0.17,9.83,0.00,19.61,24.27,28.06,15.03,53.91,1028.82,2036.82,1331.61,1481.41,1644.34,599.88,610.12,45.61,0000 0000 0000 0000 000000
2016-12-20 08:01:24,0.03,9.84,0.00,19.63,24.28,28.13,15.03,53.95,1028.82,2036.70,1330.90,1480.90,1643.69,600.20,610.42,45.66,0000 0000 0000 0000 000000
2016-12-20 08:06:25,0.15,9.85,0.00,19.66,24.29,28.08,15.00,53.83,1028.82,2036.49,1330.05,1480.08,1642.97,599.83,609.94,45.71,0000 0000 0000 0000 000000
2016-12-20 08:11:26,0.20,9.86,0.00,19.65,24.30,28.09,14.98,53.84,1028.77,2036.62,1329.17,1479.64,1642.12,599.84,609.84,45.76,0000 0000 0000 0000 000000
2016-12-20 08:16:28,0.06,9.86,0.00,19.68,24.30,28.07,14.99,53.98,1028.82,2036.40,1328.61,1479.01,1641.55,599.82,609.89,45.81,0000 0000 0000 0000 000000
2016-12-20 08:21:29,0.09,9.87,0.00,19.65,24.30,28.14,14.99,54.05,1028.82,2036.25,1327.97,1478.24,1640.86,600.13,610.25,45.86,0000 0000 0000 0000 000000
2016-12-20 08:26:30,0.14,9.87,0.00,19.66,24.32,28.15,15.05,54.03,1028.83,2036.13,1327.16,1477.75,1640.06,600.14,610.21,45.91,0000 0000 0000 0000 000000
2016-12-20 08:31:31,0.15,9.88,0.00,19.70,24.32,28.14,15.03,54.05,1028.83,2036.06,1326.35,1477.03,1639.26,599.99,609.85,45.96,0000 0000 0000 0000 000000
2016-12-20 08:36:33,0.17,9.89,0.00,19.72,24.32,28.13,15.00,54.01,1028.82,2036.03,1325.58,1476.24,1638.57,599.76,609.73,46.01,0000 0000 0000 0000 000000
2016-12-20 08:41:34,0.11,9.89,0.00,19.73,24.34,28.17,15.06,53.96,1028.81,2036.05,1324.74,1475.75,1637.85,599.89,609.94,46.06,0000 0000 0000 0000 000000
2016-12-20 08:46:35,0.14,9.90,0.00,19.77,24.35,28.20,15.08,53.78,1028.82,2036.01,1323.83,1475.02,1637.04,600.15,610.08,46.12,0000 0000 0000 0000 000000
2016-12-20 08:51:36,0.17,9.91,0.00,19.81,24.35,28.23,14.99,53.78,1028.84,2036.01,1323.03,1474.37,1636.23,600.05,609.81,46.17,0000 0000 0000 0000 000000
2016-12-20 08:56:38,0.13,9.92,0.00,19.82,24.36,28.22,14.98,53.80,1028.84,2036.01,1322.29,1473.83,1635.63,599.85,609.60,46.22,0000 0000 0000 0000 000000
2016-12-20 09:01:39,0.15,9.92,0.00,19.81,24.37,28.22,14.98,53.98,1028.83,2036.00,1321.48,1473.05,1634.87,599.86,609.52,46.27,0000 0000 0000 0000 000000
2016-12-20 09:06:40,0.16,9.93,0.00,19.80,24.37,28.20,15.10,54.08,1028.85,2036.00,1320.69,1472.36,1634.05,600.22,609.80,46.32,0000 0000 0000 0000 000000
2016-12-20 09:11:42,0.11,9.94,0.00,19.81,24.39,28.25,14.96,54.10,1028.99,2036.00,1319.80,1471.92,1633.25,599.72,609.50,46.37,0000 0000 0000 0000 000000
2016-12-20 09:16:43,0.16,9.95,0.00,19.85,24.40,28.26,15.00,53.99,1029.24,2036.00,1319.00,1471.12,1632.61,599.95,609.82,46.42,0000 0000 0000 0000 000000
2016-12-20 09:21:44,0.13,9.95,0.00,19.84,24.40,28.28,15.05,54.07,1029.31,2036.00,1318.19,1470.71,1631.90,600.16,610.07,46.47,0000 0000 0000 0000 000000
2016-12-20 09:26:46,0.14,9.96,0.00,19.81,24.42,28.32,15.08,54.08,1029.31,2036.00,1317.48,1470.01,1631.06,600.04,610.08,46.52,0000 0000 0000 0000 000000
2016-12-20 09:31:47,0.17,9.97,0.00,19.84,24.42,28.33,14.97,54.04,1029.32,2036.00,1316.67,1469.24,1630.17,599.93,609.94,46.57,0000 0000 0000 0000 000000
2016-12-20 09:36:48,0.14,9.98,0.00,19.85,24.42,28.26,15.02,54.03,1029.58,2035.99,1315.81,1468.68,1629.46,599.87,609.98,46.62,0000 0000 0000 0000 000000
2016-12-20 09:41:50,0.13,9.99,0.00,19.85,24.43,28.29,15.08,53.98,1029.77,2035.99,1314.87,1468.00,1628.73,600.08,610.28,46.67,0000 0000 0000 0000 000000
2016-12-20 09:46:51,0.16,10.00,0.00,19.87,24.45,28.30,15.02,53.95,1029.78,2035.98,1314.01,1467.19,1627.97,600.11,610.31,46.72,0000 0000 0000 0000 000000
2016-12-20 09:51:52,0.17,10.00,0.00,19.87,24.45,28.31,15.05,53.92,1029.80,2035.98,1313.13,1466.60,1627.12,599.92,610.03,46.77,0000 0000 0000 0000 000000
2016-12-20 09:56:53,0.14,10.01,0.00,19.87,24.47,28.31,14.98,53.92,1029.79,2035.96,1312.33,1465.99,1626.36,599.81,610.05,46.82,0000 0000 0000 0000 000000
2016-12-20 10:01:55,0.17,10.02,0.00,19.88,24.47,28.29,15.01,54.13,1029.78,2035.97,1311.51,1465.18,1625.65,600.06,610.25,46.87,0000 0000 0000 0000 000000
2016-12-20 10:06:56,0.20,10.03,0.00,19.89,24.47,28.30,14.97,54.16,1029.74,2035.89,1310.22,1464.29,1624.71,600.10,610.19,46.92,0000 0000 0000 0000 000000
2016-12-20 10:11:58,0.10,10.03,0.00,19.89,24.49,28.37,14.95,54.00,1029.59,2035.88,1309.56,1463.84,1623.98,599.55,609.60,46.98,0000 0000 0000 0000 000000
2016-12-20 10:16:59,0.15,10.04,0.00,19.88,24.50,28.37,15.02,53.92,1029.38,2035.85,1308.77,1463.06,1623.15,599.89,609.89,47.03,0000 0000 0000 0000 000000
2016-12-20 10:22:00,0.14,10.05,0.00,19.90,24.51,28.34,15.03,53.88,1029.41,2035.81,1307.99,1462.50,1622.44,600.17,610.04,47.08,0000 0000 0000 0000 000000
2016-12-20 10:27:02,0.06,10.05,0.00,19.90,24.52,28.39,15.07,53.77,1029.54,2035.39,1307.13,1461.91,1621.74,600.01,609.99,47.13,0000 0000 0000 0000 000000
2016-12-20 10:32:03,0.16,10.06,0.00,19.93,24.52,28.41,15.00,53.78,1029.65,2035.26,1306.31,1461.08,1620.98,599.81,609.92,47.18,0000 0000 0000 0000 000000
2016-12-20 10:37:05,0.13,10.07,0.00,19.97,24.54,28.42,15.01,53.85,1029.74,2035.10,1305.65,1460.48,1620.13,599.56,609.58,47.23,0000 0000 0000 0000 000000
2016-12-20 10:42:06,0.09,10.07,0.00,19.97,24.55,28.38,15.03,53.93,1029.61,2035.06,1304.95,1459.95,1619.46,599.93,609.83,47.28,0000 0000 0000 0000 000000
2016-12-20 10:47:07,0.17,10.08,0.00,19.97,24.56,28.39,15.04,53.93,1029.43,2035.02,1304.08,1459.12,1618.76,599.96,609.68,47.33,0000 0000 0000 0000 000000
2016-12-20 10:52:09,0.16,10.09,0.00,19.98,24.57,28.38,14.97,54.04,1029.53,2035.02,1303.22,1458.55,1618.00,600.02,609.82,47.38,0000 0000 0000 0000 000000
2016-12-20 10:57:10,0.14,10.10,0.00,19.96,24.57,28.39,15.07,53.92,1029.41,2035.00,1302.43,1457.94,1617.14,599.95,609.77,47.43,0000 0000 0000 0000 000000
2016-12-20 11:02:11,0.17,10.10,0.00,20.00,24.59,28.39,14.96,53.83,1029.69,2035.00,1301.64,1457.11,1616.41,599.96,609.82,47.48,0000 0000 0000 0000 000000
2016-12-20 11:07:12,0.14,10.11,0.00,20.01,24.60,28.42,15.02,53.75,1029.80,2035.00,1300.82,1456.53,1615.74,599.86,609.91,47.53,0000 0000 0000 0000 000000
2016-12-20 11:12:14,0.09,10.12,0.00,20.01,24.61,28.42,15.01,53.89,1029.80,2035.00,1300.00,1455.98,1614.99,600.18,610.14,47.58,0000 0000 0000 0000 000000
2016-12-20 11:17:15,0.19,10.13,0.00,20.02,24.62,28.46,15.07,53.80,1029.81,2035.00,1299.18,1455.23,1614.16,599.80,609.80,47.63,0000 0000 0000 0000 000000
2016-12-20 11:22:16,0.15,10.13,0.00,20.02,24.62,28.45,15.00,53.86,1029.82,2035.00,1298.56,1454.66,1613.49,600.09,609.95,47.68,0000 0000 0000 0000 000000
2016-12-20 11:27:18,0.09,10.14,0.00,20.02,24.65,28.47,14.98,54.02,1029.81,2034.99,1297.83,1454.00,1612.76,599.62,609.52,47.73,0000 0000 0000 0000 000000
2016-12-20 11:32:19,0.16,10.15,0.00,20.05,24.65,28.45,15.02,54.14,1029.80,2034.99,1297.02,1453.29,1612.02,600.29,610.11,47.78,0000 0000 0000 0000 000000
2016-12-20 11:37:20,0.15,10.16,0.00,20.01,24.66,28.52,15.03,54.13,1029.78,2034.98,1296.19,1452.80,1611.24,600.06,610.03,47.84,0000 0000 0000 0000 000000
2016-12-20 11:42:22,0.17,10.16,0.00,20.02,24.67,28.54,15.05,54.34,1029.48,2034.98,1295.41,1452.04,1610.58,600.16,609.86,47.89,0000 0000 0000 0000 000000
2016-12-20 11:47:23,0.14,10.17,0.00,20.03,24.67,28.55,14.98,54.40,1029.71,2034.99,1294.64,1451.46,1609.90,599.75,609.61,47.94,0000 0000 0000 0000 000000
2016-12-20 11:52:24,0.11,10.18,0.00,20.00,24.67,28.57,15.00,54.08,1029.80,2034.98,1293.82,1450.87,1609.06,600.09,610.07,47.99,0000 0000 0000 0000 000000
2016-12-20 11:57:26,0.17,10.19,0.00,20.00,24.68,28.55,15.02,53.92,1029.86,2034.97,1293.01,1450.06,1608.30,599.98,609.96,48.04,0000 0000 0000 0000 000000
2016-12-20 12:02:27,0.17,10.19,0.00,19.99,24.69,28.56,15.02,54.01,1029.84,2034.93,1292.21,1449.48,1607.63,599.76,609.59,48.09,0000 0000 0000 0000 000000
2016-12-20 12:07:28,0.09,10.20,0.00,19.99,24.69,28.52,14.90,54.08,1029.82,2034.87,1291.46,1448.98,1606.97,599.91,609.81,48.14,0000 0000 0000 0000 000000
2016-12-20 12:12:30,0.15,10.21,0.00,19.99,24.69,28.51,15.00,54.18,1029.82,2034.96,1290.84,1448.21,1606.15,600.00,609.96,48.19,0000 0000 0000 0000 000000
2016-12-20 12:17:31,0.13,10.22,0.00,19.99,24.70,28.48,15.05,54.04,1029.88,2034.96,1290.05,1447.77,1605.57,600.10,610.05,48.24,0000 0000 0000 0000 000000
2016-12-20 12:22:33,0.12,10.22,0.00,20.00,24.70,28.50,14.94,53.93,1029.99,2034.90,1289.31,1447.03,1604.96,599.65,609.77,48.29,0000 0000 0000 0000 000000
2016-12-20 12:27:34,0.17,10.23,0.00,20.01,24.70,28.43,15.03,53.86,1030.14,2034.86,1288.57,1446.39,1604.12,599.88,609.89,48.34,0000 0000 0000 0000 000000
2016-12-20 12:32:35,0.08,10.24,0.00,20.01,24.70,28.54,14.98,53.98,1030.06,2034.72,1287.88,1445.91,1603.39,599.94,609.98,48.39,0000 0000 0000 0000 000000
2016-12-20 12:37:36,0.13,10.24,0.00,20.00,24.70,28.52,15.00,54.00,1030.03,2034.70,1287.07,1445.13,1602.85,599.99,610.15,48.44,0000 0000 0000 0000 000000
2016-12-20 12:42:38,0.15,10.25,0.00,20.03,24.70,28.52,15.03,53.92,1030.10,2034.63,1286.24,1444.67,1602.05,599.87,609.86,48.49,0000 0000 0000 0000 000000
2016-12-20 12:47:39,0.15,10.26,0.00,20.03,24.71,28.56,15.04,53.84,1030.04,2034.54,1285.59,1444.02,1601.30,600.06,610.06,48.54,0000 0000 0000 0000 000000
2016-12-20 12:52:40,0.11,10.26,0.00,20.01,24.72,28.51,15.03,53.98,1029.85,2034.54,1284.84,1443.39,1600.75,600.01,609.94,48.59,0000 0000 0000 0000 000000
2016-12-20 12:57:41,0.10,10.27,0.00,20.02,24.72,28.48,15.02,54.08,1029.81,2034.37,1284.02,1442.90,1600.01,600.09,610.11,48.64,0000 0000 0000 0000 000000